^^
Saratoga-Weather Station Historical Data
Daily Summary for January 19, 2021 Units:  English    Metric   Both
Daily Weekly Monthly Yearly Custom
  High: Low: Average:
Temperature: 38.7 °F 36.9 °F 37.6 °F
Dew Point: 36.9 °F 32.9 °F 34.3 °F
Humidity: 94% 83% 88%
Wind Speed: 14mph 0mph 2.7mph
Wind Gust: 15mph - -
Wind- - SSW
Pressure: 30.2 in 29.9 in -
Precipitation: 0.14 in    
Historical Graphs
 
 
Tabular Data for January 19, 2021
Time Temperature Dew Point Pressure Wind Wind Speed Wind Gust Humidity Rainfall Rate (Hourly) solar
00:04 37.4 °F 34.2 °F 30.2 in Calm   2 mph 88% 0 in 0 W/m2
00:09 37.4 °F 34.2 °F 30.2 in Calm     88% 0 in 0 W/m2
00:14 37.4 °F 34.2 °F 30.2 in Calm   1 mph 88% 0 in 0 W/m2
00:19 37.2 °F 34 °F 30.2 in Calm   1 mph 88% 0 in 0 W/m2
00:24 37.2 °F 34 °F 30.2 in Calm     88% 0 in 0 W/m2
00:29 37 °F 33.8 °F 30.2 in SSE 2 mph 6 mph 88% 0 in 0 W/m2
00:34 37 °F 33.8 °F 30.2 in Calm   2 mph 88% 0 in 0 W/m2
00:39 37 °F 33.8 °F 30.2 in ENE 2 mph 6 mph 88% 0 in 0 W/m2
00:44 37 °F 33.8 °F 30.2 in Calm   1 mph 88% 0 in 0 W/m2
00:49 37 °F 33.8 °F 30.2 in East 2 mph 3 mph 88% 0 in 0 W/m2
00:54 37 °F 33.8 °F 30.2 in Calm   3 mph 88% 0 in 0 W/m2
00:59 37 °F 33.8 °F 30.2 in ENE 2 mph 4 mph 88% 0 in 0 W/m2
01:04 37.2 °F 33.8 °F 30.2 in NNW 0.9 mph 4 mph 87% 0 in 0 W/m2
01:09 37.4 °F 33.8 °F 30.2 in North 0.9 mph 5 mph 87% 0 in 0 W/m2
01:14 37.4 °F 33.8 °F 30.2 in NW 4 mph 5 mph 87% 0 in 0 W/m2
01:19 37.6 °F 34 °F 30.2 in North 2 mph 2 mph 87% 0 in 0 W/m2
01:24 37.6 °F 34 °F 30.2 in ENE 2 mph 3 mph 87% 0 in 0 W/m2
01:29 37.6 °F 34 °F 30.2 in ENE 2.9 mph 3 mph 87% 0 in 0 W/m2
01:34 37.6 °F 34 °F 30.2 in ESE 2.9 mph 6 mph 87% 0 in 0 W/m2
01:39 37.6 °F 33.8 °F 30.2 in Calm   1 mph 86% 0 in 0 W/m2
01:44 37.6 °F 33.8 °F 30.2 in ENE 0.9 mph 4 mph 86% 0 in 0 W/m2
01:49 37.8 °F 34 °F 30.2 in WNW 0.9 mph 3 mph 86% 0 in 0 W/m2
01:54 37.8 °F 34 °F 30.2 in East 0.9 mph 6 mph 86% 0 in 0 W/m2
01:59 37.8 °F 34 °F 30.2 in East 2.9 mph 7 mph 86% 0 in 0 W/m2
02:04 37.8 °F 34 °F 30.2 in ENE 2 mph 3 mph 86% 0 in 0 W/m2
02:09 37.8 °F 34 °F 30.2 in ENE 0.9 mph 4 mph 86% 0 in 0 W/m2
02:14 37.6 °F 33.8 °F 30.2 in NE 2 mph 3 mph 86% 0 in 0 W/m2
02:19 37.8 °F 34 °F 30.2 in NW 2 mph 5 mph 86% 0 in 0 W/m2
02:24 37.8 °F 34 °F 30.1 in Calm   4 mph 86% 0 in 0 W/m2
02:29 37.8 °F 34 °F 30.1 in North 2.9 mph 5 mph 86% 0 in 0 W/m2
02:34 37.8 °F 34 °F 30.1 in ESE 0.9 mph 3 mph 86% 0 in 0 W/m2
02:39 37.8 °F 33.6 °F 30.1 in WNW 2 mph 4 mph 85% 0 in 0 W/m2
02:44 37.8 °F 33.6 °F 30.1 in Calm   3 mph 85% 0 in 0 W/m2
02:49 37.8 °F 34 °F 30.1 in NW 2 mph 5 mph 86% 0 in 0 W/m2
02:54 37.8 °F 33.6 °F 30.1 in ESE 6 mph 8 mph 85% 0 in 0 W/m2
02:59 37.8 °F 33.6 °F 30.1 in WNW 2.9 mph 3 mph 85% 0 in 0 W/m2
03:04 37.8 °F 33.6 °F 30.1 in NNW 2 mph 8 mph 85% 0 in 0 W/m2
03:09 37.8 °F 33.6 °F 30.1 in East 2 mph 2 mph 85% 0 in 0 W/m2
03:14 37.8 °F 33.6 °F 30.1 in ENE 2 mph 2 mph 85% 0 in 0 W/m2
03:19 37.8 °F 33.6 °F 30.1 in WNW 0.9 mph 4 mph 85% 0 in 0 W/m2
03:24 37.8 °F 33.6 °F 30.1 in ENE 0.9 mph 4 mph 85% 0 in 0 W/m2
03:29 37.6 °F 33.4 °F 30.1 in NNW 2 mph 5 mph 85% 0 in 0 W/m2
03:34 37.6 °F 33.4 °F 30.1 in ENE 0.9 mph 4 mph 85% 0 in 0 W/m2
03:39 37.6 °F 33.4 °F 30.1 in NNE 2 mph 5 mph 85% 0 in 0 W/m2
03:44 37.6 °F 33.8 °F 30.1 in North 0.9 mph 4 mph 86% 0 in 0 W/m2
03:49 37.6 °F 33.4 °F 30.1 in West 0.9 mph 4 mph 85% 0 in 0 W/m2
03:54 37.6 °F 33.8 °F 30.1 in East 0.9 mph 3 mph 86% 0 in 0 W/m2
03:59 37.6 °F 33.4 °F 30.1 in NNE 2.9 mph 4 mph 85% 0 in 0 W/m2
04:04 37.6 °F 33.4 °F 30.1 in North 2.9 mph 5 mph 85% 0 in 0 W/m2
04:09 37.4 °F 33.6 °F 30.1 in NE 2.9 mph 4 mph 86% 0 in 0 W/m2
04:14 37.4 °F 33.6 °F 30.1 in East 0.9 mph 2 mph 86% 0 in 0 W/m2
04:19 37.4 °F 33.6 °F 30.1 in NE 0.9 mph 3 mph 86% 0 in 0 W/m2
04:24 37.4 °F 33.6 °F 30.1 in NNW 2 mph 2 mph 86% 0 in 0 W/m2
04:29 37.4 °F 33.3 °F 30.1 in NNE 4 mph 4 mph 85% 0 in 0 W/m2
04:34 37.6 °F 33.4 °F 30.1 in NE 0.9 mph 4 mph 85% 0 in 0 W/m2
04:39 37.6 °F 33.4 °F 30.1 in North 2.9 mph 4 mph 85% 0 in 0 W/m2
04:44 37.6 °F 33.4 °F 30.1 in NNE 2 mph 3 mph 85% 0 in 0 W/m2
04:49 37.6 °F 33.4 °F 30.1 in NNW 2 mph 4 mph 85% 0 in 0 W/m2
04:54 37.6 °F 33.4 °F 30.1 in SE 0.9 mph 2 mph 85% 0 in 0 W/m2
04:59 37.6 °F 33.4 °F 30.1 in NNW 0.9 mph 3 mph 85% 0 in 0 W/m2
05:04 37.4 °F 33.3 °F 30.1 in Calm   2 mph 85% 0 in 0 W/m2
05:09 37.2 °F 33.1 °F 30.1 in Calm   2 mph 85% 0 in 0 W/m2
05:14 37.2 °F 33.1 °F 30.1 in NE 2 mph 4 mph 85% 0 in 0 W/m2
05:20 37.2 °F 33.1 °F 30.1 in Calm   3 mph 85% 0 in 0 W/m2
05:25 37 °F 32.9 °F 30.1 in NE 2 mph 3 mph 85% 0 in 0 W/m2
05:30 37.2 °F 33.1 °F 30.1 in North 2 mph 4 mph 85% 0 in 0 W/m2
05:35 37.2 °F 33.1 °F 30.1 in WNW 2 mph 8 mph 85% 0 in 0 W/m2
05:40 37.2 °F 33.1 °F 30.1 in North 0.9 mph 4 mph 85% 0 in 0 W/m2
05:45 37.2 °F 33.1 °F 30.1 in NE 2.9 mph 6 mph 85% 0 in 0 W/m2
05:50 37.4 °F 33.3 °F 30.1 in North 4 mph 5 mph 85% 0 in 0 W/m2
05:55 37.6 °F 33.4 °F 30.1 in Calm   3 mph 85% 0 in 0 W/m2
06:00 37.6 °F 33.4 °F 30.1 in NNW 2 mph 3 mph 85% 0 in 0 W/m2
06:05 37.6 °F 33.4 °F 30.1 in ENE 2.9 mph 4 mph 85% 0 in 0 W/m2
06:10 37.6 °F 33.4 °F 30.1 in NE 0.9 mph 4 mph 85% 0 in 0 W/m2
06:15 37.6 °F 33.4 °F 30.1 in ENE 2 mph 2 mph 85% 0 in 0 W/m2
06:20 37.4 °F 33.3 °F 30.1 in ENE 2 mph 9 mph 85% 0 in 0 W/m2
06:25 37.4 °F 33.3 °F 30.1 in ENE 0.9 mph 3 mph 85% 0 in 0 W/m2
06:30 37.4 °F 33.3 °F 30.1 in North 2 mph 7 mph 85% 0 in 0 W/m2
06:35 37.2 °F 33.1 °F 30.1 in SE 2.9 mph 6 mph 85% 0 in 0 W/m2
06:40 37.2 °F 33.1 °F 30.1 in North 0.9 mph 3 mph 85% 0 in 0 W/m2
06:45 37.2 °F 33.1 °F 30.1 in NNE 0.9 mph 9 mph 85% 0 in 0 W/m2
06:50 37.2 °F 33.1 °F 30 in NW 2 mph 8 mph 85% 0 in 0 W/m2
06:55 37.2 °F 33.1 °F 30 in NE 2.9 mph 3 mph 85% 0 in 0 W/m2
07:00 37.2 °F 33.1 °F 30 in WNW 8.1 mph 8 mph 85% 0 in 0 W/m2
07:05 37 °F 32.9 °F 30 in NE 0.9 mph 11 mph 85% 0 in 0 W/m2
07:10 37 °F 33.3 °F 30 in North 0.9 mph 5 mph 86% 0 in 0 W/m2
07:15 37 °F 33.3 °F 30 in NE 0.9 mph 11 mph 86% 0 in 0 W/m2
07:20 37 °F 33.3 °F 30 in WNW 2 mph 4 mph 86% 0 in 0 W/m2
07:25 37 °F 33.3 °F 30 in ENE 2 mph 2 mph 86% 0 in 0 W/m2
07:30 36.9 °F 33.1 °F 30 in WNW 2.9 mph 5 mph 86% 0 in 0 W/m2
07:35 36.9 °F 33.1 °F 30 in NW 2.9 mph 3 mph 86% 0 in 0 W/m2
07:40 36.9 °F 33.1 °F 30 in North 2 mph 3 mph 86% 0 in 0 W/m2
07:45 37 °F 33.3 °F 30 in WSW 2 mph 5 mph 86% 0 in 0 W/m2
07:50 37 °F 33.3 °F 30 in NNE 0.9 mph 4 mph 86% 0 in 0 W/m2
07:55 37 °F 33.3 °F 30 in ENE 2.9 mph 4 mph 86% 0 in 0 W/m2
08:00 37 °F 33.3 °F 30 in NNE 4.9 mph 7 mph 86% 0 in 0 W/m2
08:05 37.2 °F 33.4 °F 30 in NNW 2.9 mph 5 mph 86% 0 in 0 W/m2
08:10 37.2 °F 33.4 °F 30 in Calm   7 mph 86% 0 in 0 W/m2
08:15 37.2 °F 33.1 °F 30 in NW 0.9 mph 4 mph 85% 0 in 0 W/m2
08:20 37.4 °F 33.3 °F 30 in NW 2 mph 8 mph 85% 0 in 0 W/m2
08:25 37.6 °F 33.4 °F 30 in WNW 0.9 mph 3 mph 85% 0 in 0 W/m2
08:30 37.6 °F 33.3 °F 30 in WNW 2.9 mph 8 mph 84% 0 in 0 W/m2
08:35 37.8 °F 33.4 °F 30 in WNW 0.9 mph 7 mph 84% 0 in 7 W/m2
08:40 37.8 °F 33.4 °F 30 in NNW 0.9 mph 9 mph 84% 0 in 9 W/m2
08:45 37.9 °F 33.6 °F 30 in WNW 4 mph 4 mph 84% 0 in 12 W/m2
08:50 37.9 °F 33.6 °F 30 in NW 2 mph 9 mph 84% 0 in 16 W/m2
08:55 37.9 °F 33.6 °F 30 in North 4 mph 6 mph 84% 0 in 21 W/m2
09:01 38.1 °F 33.4 °F 30 in WNW 6.9 mph 7 mph 83% 0 in 23 W/m2
09:06 38.1 °F 33.4 °F 30 in SW 2.9 mph 7 mph 83% 0 in 25 W/m2
09:11 38.3 °F 33.6 °F 30 in Calm   9 mph 83% 0 in 26 W/m2
09:16 38.3 °F 33.6 °F 30 in NW 4 mph 6 mph 83% 0 in 30 W/m2
09:21 38.5 °F 33.8 °F 30 in South 2 mph 6 mph 83% 0 in 33 W/m2
09:26 38.5 °F 33.8 °F 30 in WNW 8.9 mph 12 mph 83% 0 in 35 W/m2
09:31 38.5 °F 33.8 °F 30 in NE 0.9 mph 4 mph 83% 0 in 33 W/m2
09:36 38.5 °F 33.8 °F 30 in NW 2.9 mph 12 mph 83% 0 in 28 W/m2
09:41 38.5 °F 34.2 °F 30 in West 6 mph 15 mph 84% 0 in 25 W/m2
09:46 38.3 °F 34 °F 30 in WNW 6.9 mph 7 mph 84% 0.01 in 26 W/m2
09:51 38.1 °F 34 °F 30 in ENE 0.9 mph 15 mph 85% 0.01 in 33 W/m2
09:56 38.1 °F 34 °F 30 in WSW 2 mph 5 mph 85% 0.02 in 32 W/m2
10:01 37.9 °F 34.2 °F 30 in West 2.9 mph 6 mph 86% 0.02 in 30 W/m2
10:06 37.9 °F 34.2 °F 30 in SW 2 mph 9 mph 86% 0.02 in 28 W/m2
10:11 37.8 °F 34.2 °F 30 in ENE 4 mph 4 mph 87% 0.02 in 33 W/m2
10:16 37.8 °F 34.5 °F 30 in WSW 2 mph 9 mph 88% 0.02 in 37 W/m2
10:21 37.8 °F 34.5 °F 30 in NW 2.9 mph 6 mph 88% 0.03 in 33 W/m2
10:26 37.6 °F 34.7 °F 30 in NNE 2.9 mph 3 mph 89% 0.03 in 37 W/m2
10:31 37.6 °F 34.7 °F 30 in WSW 4 mph 8 mph 89% 0.04 in 46 W/m2
10:36 37.6 °F 34.7 °F 30 in Calm   10 mph 89% 0.05 in 46 W/m2
10:41 37.6 °F 34.9 °F 30 in ENE 4 mph 5 mph 90% 0.05 in 53 W/m2
10:46 37.6 °F 34.9 °F 30 in West 6 mph 6 mph 90% 0.04 in 37 W/m2
10:51 37.6 °F 34.9 °F 30 in WNW 4 mph 5 mph 90% 0.05 in 40 W/m2
10:56 37.6 °F 34.9 °F 30 in North 4 mph 8 mph 90% 0.05 in 42 W/m2
11:01 37.6 °F 35.2 °F 30 in WNW 2.9 mph 7 mph 91% 0.05 in 40 W/m2
11:06 37.6 °F 35.2 °F 30 in NNW 2.9 mph 5 mph 91% 0.05 in 46 W/m2
11:11 37.6 °F 35.2 °F 30 in NNW 4 mph 7 mph 91% 0.05 in 46 W/m2
11:16 37.4 °F 35.2 °F 30 in WNW 2.9 mph 6 mph 92% 0.06 in 35 W/m2
11:21 37.4 °F 35.2 °F 30 in SSE 4 mph 8 mph 92% 0.05 in 33 W/m2
11:26 37.4 °F 35.2 °F 30 in NNE 2 mph 6 mph 92% 0.06 in 37 W/m2
11:31 37.4 °F 35.2 °F 30 in WSW 4 mph 9 mph 92% 0.06 in 47 W/m2
11:36 37.6 °F 35.4 °F 30 in NNE 4.9 mph 8 mph 92% 0.05 in 54 W/m2
11:41 37.6 °F 35.4 °F 30 in North 4 mph 7 mph 92% 0.06 in 54 W/m2
11:46 37.6 °F 35.4 °F 30 in NE 2 mph 5 mph 92% 0.05 in 56 W/m2
11:51 37.6 °F 35.4 °F 30 in WNW 4 mph 8 mph 92% 0.05 in 62 W/m2
11:56 37.6 °F 35.4 °F 30 in ESE 2 mph 12 mph 92% 0.04 in 56 W/m2
12:01 37.6 °F 35.8 °F 30 in NNW 2.9 mph 5 mph 93% 0.04 in 44 W/m2
12:06 37.6 °F 35.8 °F 30 in NNW 2.9 mph 9 mph 93% 0.03 in 53 W/m2
12:11 37.8 °F 36 °F 30 in NW 2.9 mph 8 mph 93% 0.04 in 51 W/m2
12:16 37.8 °F 36 °F 30 in ESE 0.9 mph 10 mph 93% 0.03 in 58 W/m2
12:21 37.8 °F 36 °F 30 in North 2 mph 14 mph 93% 0.03 in 58 W/m2
12:26 37.8 °F 36 °F 30 in NNW 2 mph 3 mph 93% 0.02 in 63 W/m2
12:31 37.8 °F 36 °F 30 in NW 2 mph 14 mph 93% 0.02 in 67 W/m2
12:36 37.8 °F 36 °F 30 in WNW 4.9 mph 7 mph 93% 0.02 in 70 W/m2
12:41 37.8 °F 36 °F 30 in ENE 11 mph 11 mph 93% 0.02 in 72 W/m2
12:46 37.8 °F 36 °F 30 in NW 0.9 mph 13 mph 93% 0.02 in 62 W/m2
12:51 37.8 °F 36.1 °F 30 in North 2 mph 9 mph 94% 0.02 in 58 W/m2
12:56 37.9 °F 36.3 °F 30 in WNW 2.9 mph 13 mph 94% 0.02 in 81 W/m2
13:02 37.9 °F 36.3 °F 29.9 in NNW 6 mph 10 mph 94% 0.02 in 79 W/m2
13:07 37.9 °F 36.3 °F 29.9 in NW 4 mph 9 mph 94% 0.02 in 79 W/m2
13:12 37.9 °F 36.3 °F 29.9 in North 4 mph 8 mph 94% 0.02 in 63 W/m2
13:17 37.9 °F 36.3 °F 29.9 in WNW 2 mph 8 mph 94% 0.02 in 63 W/m2
13:22 37.9 °F 36.3 °F 29.9 in NW 2.9 mph 10 mph 94% 0.02 in 58 W/m2
13:27 37.9 °F 36.3 °F 29.9 in NNW 2.9 mph 4 mph 94% 0.02 in 70 W/m2
13:32 37.9 °F 36.3 °F 29.9 in WNW 6.9 mph 10 mph 94% 0.02 in 84 W/m2
13:37 38.1 °F 36.5 °F 29.9 in North 2.9 mph 8 mph 94% 0.02 in 65 W/m2
13:42 38.1 °F 36.5 °F 29.9 in NW 4 mph 7 mph 94% 0.01 in 72 W/m2
13:47 38.1 °F 36.5 °F 29.9 in NW 2.9 mph 9 mph 94% 0.01 in 72 W/m2
13:52 38.1 °F 36.5 °F 29.9 in NNW 2 mph 12 mph 94% 0.01 in 58 W/m2
13:57 38.1 °F 36.5 °F 29.9 in NNW 2.9 mph 6 mph 94% 0.01 in 56 W/m2
14:02 38.1 °F 36.5 °F 29.9 in West 6.9 mph 12 mph 94% 0.01 in 74 W/m2
14:07 38.1 °F 36.3 °F 29.9 in NW 2.9 mph 13 mph 93% 0 in 76 W/m2
14:12 38.3 °F 36.5 °F 29.9 in WNW 10.1 mph 14 mph 93% 0 in 74 W/m2
14:17 38.5 °F 36.7 °F 29.9 in West 2 mph 7 mph 93% 0 in 97 W/m2
14:22 38.5 °F 36.7 °F 29.9 in NW 14 mph 14 mph 93% 0 in 69 W/m2
14:27 38.5 °F 36.7 °F 29.9 in WNW 8.9 mph 9 mph 93% 0 in 84 W/m2
14:32 38.5 °F 36.7 °F 29.9 in WNW 6.9 mph 10 mph 93% 0 in 69 W/m2
14:37 38.7 °F 36.9 °F 29.9 in SW 10.1 mph 10 mph 93% 0 in 62 W/m2
14:42 38.5 °F 36.7 °F 29.9 in WNW 2.9 mph 6 mph 93% 0 in 65 W/m2
14:47 38.7 °F 36.9 °F 29.9 in West 2 mph 8 mph 93% 0 in 74 W/m2
14:52 38.7 °F 36.9 °F 29.9 in West 10.1 mph 10 mph 93% 0.01 in 79 W/m2
14:57 38.7 °F 36.9 °F 29.9 in NW 4 mph 8 mph 93% 0.01 in 102 W/m2
15:02 38.7 °F 36.9 °F 29.9 in NW 2.9 mph 7 mph 93% 0.02 in 97 W/m2
15:07 38.7 °F 36.9 °F 29.9 in NNW 8.1 mph 8 mph 93% 0.02 in 65 W/m2
Juneau County Weather
Compliments of Weather Underground - 4 mb